Погода в Варзуге

Погода в Варзуге : погода сейчас, прогноз погоды и архив. Всё, что Вы хотите узнать о погоде в Варзуге!

Поиск расширенной информации на нашем сайте:

Другие новости

Новости СМИ2

Главная страница сайта

Новости сайта

03.07.2017

Напоминаем, что на нашем специализированном сайте Метеоцентр.Азия вы можете получить высокодетализированные автоматические прогнозы погоды по пунктам России, СНГ и мира в авиационном формате (включающие направление и скорость ветра, видимость, явления погоды, количество и форму облачности, нижнюю и верхнюю границу облачности).

Рекомендуем: предлагаем помещения: купить офис в БЦ Школа Журналистов у метро Тверская

Погода в Варзуге - сегодня

Время (UTC), дата Ветер
(°,м/с) 
Видим.   Явления Облачность Т
(°С)
Тd
(°С)
f(%) Тe
(°С)
Pmin
(гПа)
dP
(гПа)
Po
(мм)
O2
(г/м3)
Тmin Tmax R s Состояние
почвы
00 16.09.17 050 (СВ) 4-6  н/о    н/о 
+10.1 +9.6 97 +10  992.5  0.6  744  287           
09 16.09.17 030 (СВ) 11-15{15}  н/о    н/о 
+7.7 +5.4 85 +4  998.8  749  293           
21 16.09.17 350 (С) 2-4  н/о    н/о 
+3.6 +1.3 85 +3  1010  1.6  757  301           
00 17.09.17 330 (СЗ) 2-3  н/о    н/о 
+2.2 +0.4 88 +2  1011.5  1.5  758  303           
09 17.09.17 280 (З) 4-7  н/о    н/о 
+7.1 +2.1 70 +6  1014.3  0.9  760  298           
12 17.09.17 270 (З) 5-6  н/о    н/о 
+6.9 +1.9 70 +5  1014.7  0.3  761  299           
15 17.09.17 240 (ЮЗ) 5-6  н/о    н/о 
+6.6 +4.8 88 +5  1013.7  -1  760  298           
21 17.09.17 260 (З) 8-9{11}  н/о    н/о 
+7.5 +7 97 +5  1010.7  -1.6  758  296           
00 18.09.17 270 (З) 7-9  н/о    н/о 
+6.9 +6.2 95 +4  1009.9  -0.8  757  296           
09 18.09.17 030 (СВ) 5-8{10}  н/о    н/о 
+6 +4.4 89 +4  1011.3  1.3  758  298           
18 18.09.17 050 (СВ) 6-9{12}  10 км    10/10 300 м кучево-дожд. 
[Cb cap]
+4.6 +3.5 93 +2  1013.5  0.6  760  300    +6.6     
21 18.09.17 050 (СВ) 8-11{12}  н/о    н/о 
+4 +2.8 92 +1  1013.1  -0.4  759  301           
00 19.09.17 050 (СВ) 6-8{11}  н/о    н/о 
+5 +4.3 95 +2  1013  0.1  759  300           
03 19.09.17 070 (В) 8-12{14}  н/о    н/о 
+6.3 +4.9 91 +3  1013.3  0.3  759  298  +3.7         
06 19.09.17 080 (В) 7-11{14}  20000 м    10/3 600 м верхняя 
[Sc|Ci fib]
+6.7 +4.1 83 +4  1015  1.7  761  299  +3.7      влажная 
09 19.09.17 080 (В) 9-16{19}  н/о    н/о 
+7.6 +3.3 74 +5  1015.4  0.4  761  298           
12 19.09.17 080 (В) 11-17{17}  н/о    н/о 
+8.3 +1.8 64 +5  1015.6  0.1  761  297           
15 19.09.17 060 (СВ) 10-15{17}  н/о    н/о 
+6.8 +1.4 68 +4  1017.4  1.8  763  300           
18 19.09.17 060 (СВ) 7-10{17}  20000 м    10/10 600 м 
[Sc]
+5.7 +0.9 71 +3  1019.3  1.9  764  301    +8.8       
21 19.09.17 040 (СВ) 6-9{10}  н/о    н/о 
+4.8 +1.1 77 +2  1020.2  0.9  765  303           
00 20.09.17 040 (СВ) 5-8{11}  н/о    н/о 
+4 +1.6 84 +2  1021.8  1.6  766  304           
03 20.09.17 030 (СВ) 7-9{10}  н/о    н/о 
+3.2 +1.5 89 1023.2  1.4  767  305  +3.1         
06 20.09.17 040 (СВ) 6-10{12}  20000 м    10/10 300 м кучево-дожд. 
[Cb cap]
+5.2 +2.5 83 +3  1025.5  2.3  769  304  +3.1        влажная 
09 20.09.17 050 (СВ) 8-11{13}  н/о    н/о 
+7.1 +3.2 76 +4  1026.9  1.4  770  302           
12 20.09.17 060 (СВ) 6-9{12}  н/о    н/о 
+8.1 +3 70 +6  1028.6  1.7  771  301           
Время (UTC), дата Ветер
(°,м/с) 
Видим.   Явления Облачность Т
(°С)
Тd
(°С)
f(%) Тe
(°С)
Pmin
(гПа)
dP
(гПа)
Po
(мм)
O2
(г/м3)
Тmin Tmax R s Состояние
почвы

Для получения пояснительной информации подведите курсор к названию столбца.

ПОГОДА в Варзуге - архив

Всё, что Вы хотите узнать о погоде в Варзуге - удобно и подробно!

Выберите нужную дату (начиная с 1 января 2015* года) и нажмите кнопку "Найти".
Будут отображены архивные сводки погоды по пункту Варзуга, начиная с указанной даты.


Отображать данные в формате CSV (для использования в таблицах Excel)


Внимание! Наш архив погоды предназначен исключительно для личного некоммерческого использования в познавательных целях. Если Вам необходимы официальные справки о состоянии погоды (для производственных, юридических, коммерческих и т.п. целей), обращайтесь в органы Росгидромета.

*Примечание: данная дата относится к архиву по метеостанциям СССР (Россия, СНГ, Балтия).
Архив по метеостанциям Зарубежной Европы и Азии (кроме Китая) хранится 10 дней, по другим регионам земного шара (Китай, Африка, Америка, Австралия, Океания) - 1 день.

Варзуга - район местоположения метеостанции


Название, широта, долгота, высота метеостанции:
Варзуга 66.4°ш. 36.6°д. 6 м над ур. моря [Российская Федерация]

Дополнительная информация

В oтличие oт бoльшинства пoгoдных сайтoв мы публикуем пoдрoбную метеoинфoрмацию в детальнoм прoфессиoнальнoм фoрмате.

Характеристики температуры и влажнoсти вoздуха измеряются на высoте 2 м в тени вдали oт зданий и деревьев.
Скoрoсть ветра измеряется на высoте 10 м (на урoвне рoста челoвека скoрoсть ветра ниже в 1.5-2 раза). Если метеoстанция нахoдится в гoрoде или в лесу, тo скoрoсть ветра занижена на 2-4 м/с пo сравнению с oткрытым местoм. Скoрoсть ветра над акватoриями крупных рек и oзёр, а также на вершинах хoлмoв на 2-5 м/с выше, чем в oбычных услoвиях.
Атмoсфернoе давление в разных тoчках местнoсти мoжет значительнo oтличаться oт давления на метеoстанции, в зависимoсти oт услoвий рельефа (при пoдъёме на 10 м давление пoнижается примернo на 1 мм рт.ст.).